Ashland, VA

7:22 AM EDT on September 28, 2016 (GMT -0400)
Hanover County Municipal

Weather History for KOFP - November, 2012

Change the Weather History Date:

Monday, November 5, 2012

  Actual Average Record
Temperature  
Mean Temperature 40 °F -  
Max Temperature 51 °F 61 °F 79 °F (1948)
Min Temperature 30 °F 40 °F 22 °F (1952)
Degree Days  
Heating Degree Days 24    
Moisture  
Dew Point 29 °F    
Average Humidity 71    
Maximum Humidity 96    
Minimum Humidity 38    
Precipitation  
Precipitation 0.00 in - - ()
Sea Level Pressure  
Sea Level Pressure 30.11 in    
Wind  
Wind Speed 2 mph (NNW)    
Max Wind Speed 14 mph    
Max Gust Speed -    
Visibility 10 miles    
Events      
Averages and records for this station are not official NWS values.
T = Trace of Precipitation, MM = Missing Value Source: NWS Daily Summary

Daily Weather History Graph

Daily Weather History Graph

Search for Another Location

Airport or City:

Trip Planner

Search our weather history database for the weather conditions in past years. The results will help you decide how hot, cold, wet, or windy it might be!

Date:

Astronomy

Nov. 05, 2012 Rise Set
Actual Time 6:39 AM EST 5:06 PM EST
Civil Twilight 6:12 AM EST 5:33 PM EST
Nautical Twilight 5:41 AM EST 6:05 PM EST
Astronomical Twilight 5:10 AM EST 6:35 PM EST
Moon 10:41 PM EST (11/5) 11:57 AM EST (11/5)
Length of Visible Light 11h 21m
Length of Day
10h 26m
Waning Gibbous, 63% of the Moon is Illuminated
Nov 5
Waning Gibbous
Nov 6
Last Quarter
Nov 13
New
Nov 20
First Quarter
Nov 28
Full

Hourly Weather History & Observations

Time (EST) Temp. Windchill Dew Point Humidity Pressure Visibility Wind Dir Wind Speed Gust Speed Precip Events Conditions
12:54 AM 37.0 °F - 34.0 °F 89% 30.08 in 10.0 mi Calm Calm - N/A   Overcast
1:54 AM 34.0 °F - 32.0 °F 92% 30.07 in 10.0 mi Calm Calm - N/A   Mostly Cloudy
2:54 AM 34.0 °F - 32.0 °F 92% 30.07 in 10.0 mi Calm Calm - N/A   Partly Cloudy
3:54 AM 32.0 °F - 30.9 °F 96% 30.07 in 9.0 mi Calm Calm - N/A   Clear
4:54 AM 32.0 °F - 30.0 °F 92% 30.09 in 10.0 mi Calm Calm - N/A   Clear
5:54 AM 33.1 °F - 27.0 °F 78% 30.10 in 10.0 mi Calm Calm - N/A   Clear
6:54 AM 33.1 °F 30.0 °F 27.0 °F 78% 30.11 in 10.0 mi NNW 3.5 mph - N/A   Clear
7:54 AM 37.9 °F 35.5 °F 27.0 °F 65% 30.13 in 10.0 mi North 3.5 mph - N/A   Clear
8:54 AM 42.1 °F 37.7 °F 27.0 °F 55% 30.14 in 10.0 mi Variable 6.9 mph - N/A   Clear
9:54 AM 44.1 °F 40.1 °F 27.0 °F 51% 30.13 in 10.0 mi North 6.9 mph - N/A   Clear
10:54 AM 46.0 °F 44.8 °F 27.0 °F 47% 30.13 in 10.0 mi Variable 3.5 mph - N/A   Clear
11:54 AM 46.9 °F - 27.0 °F 46% 30.11 in 10.0 mi NNW 5.8 mph - N/A   Clear
12:54 PM 50.0 °F - 28.0 °F 43% 30.10 in 10.0 mi NW 13.8 mph - N/A   Clear
1:54 PM 50.0 °F - 26.1 °F 39% 30.07 in 10.0 mi Variable 6.9 mph - N/A   Clear
2:54 PM 51.1 °F - 26.1 °F 38% 30.07 in 10.0 mi Variable 4.6 mph - N/A   Clear
3:54 PM 51.1 °F - 27.0 °F 39% 30.08 in 10.0 mi NNW 4.6 mph - N/A   Clear
4:54 PM 46.9 °F - 28.9 °F 50% 30.09 in 10.0 mi Calm Calm - N/A   Clear
5:54 PM 39.9 °F - 30.9 °F 70% 30.12 in 10.0 mi Calm Calm - N/A   Clear
6:54 PM 36.0 °F - 30.9 °F 82% 30.13 in 10.0 mi Calm Calm - N/A   Clear
7:54 PM 34.0 °F - 30.0 °F 85% 30.15 in 10.0 mi Calm Calm - N/A   Clear
8:54 PM 33.1 °F - 30.0 °F 89% 30.17 in 9.0 mi Calm Calm - N/A   Clear
9:54 PM 32.0 °F - 30.0 °F 92% 30.18 in 9.0 mi Calm Calm - N/A   Clear
10:54 PM 30.0 °F - 28.9 °F 96% 30.17 in 7.0 mi Calm Calm - N/A   Clear
11:54 PM 30.0 °F - 28.9 °F 96% 30.18 in 7.0 mi Calm Calm - N/A   Clear